• In Italy
  • List of Countries
  • For 7 days
  • Water Temperature
  • Satellite Maps
  • Weather Map
  • Weather Widgets
  • user-avatar
    Login

    Hourly Weather Ondjiwa

    Today, 25 May, Friday

    Time Temperature Precipitation Wind Pressure Humidity
    00:00 +17°C° 0 mm 2 mps 668 mmHg 55%
    01:00 +16°C° 0 mm 2 mps 668 mmHg 60%
    02:00 +16°C° 0 mm 1 mps 668 mmHg 61%
    03:00 +16°C° 0 mm 1 mps 668 mmHg 62%
    04:00 +16°C° 0 mm 1 mps 668 mmHg 62%
    05:00 +16°C° 0 mm 1 mps 668 mmHg 62%
    06:00 +16°C° 0 mm 1 mps 668 mmHg 62%
    07:00 +18°C° 0 mm 1 mps 669 mmHg 61%
    08:00 +20°C° 0 mm 2 mps 670 mmHg 52%
    09:00 +24°C° 0 mm 2 mps 670 mmHg 44%
    10:00 +26°C° 0 mm 3 mps 670 mmHg 36%
    11:00 +27°C° 0 mm 3 mps 670 mmHg 32%
    12:00 +28°C° 0 mm 3 mps 670 mmHg 28%
    13:00 +29°C° 0 mm 4 mps 669 mmHg 26%
    14:00 +29°C° 0 mm 4 mps 669 mmHg 26%
    15:00 +29°C° 0 mm 3 mps 669 mmHg 25%
    16:00 +29°C° 0 mm 3 mps 669 mmHg 25%
    17:00 +27°C° 0 mm 3 mps 668 mmHg 30%
    18:00 +24°C° 0 mm 2 mps 668 mmHg 35%
    19:00 +21°C° 0 mm 2 mps 668 mmHg 40%
    20:00 +20°C° 0 mm 2 mps 668 mmHg 43%
    21:00 +20°C° 0 mm 2 mps 668 mmHg 46%
    22:00 +19°C° 0 mm 2 mps 668 mmHg 49%
    23:00 +18°C° 0 mm 2 mps 668 mmHg 51%

    Tomorrow, 26 May, Saturday

    Time Temperature Precipitation Wind Pressure Humidity
    00:00 +17°C° 0 mm 2 mps 668 mmHg 53%
    01:00 +17°C° 0 mm 2 mps 668 mmHg 56%
    02:00 +16°C° 0 mm 2 mps 667 mmHg 58%
    03:00 +16°C° 0 mm 2 mps 667 mmHg 60%
    04:00 +15°C° 0 mm 2 mps 667 mmHg 63%
    05:00 +15°C° 0 mm 1 mps 668 mmHg 63%
    06:00 +15°C° 0 mm 1 mps 668 mmHg 64%
    07:00 +16°C° 0 mm 1 mps 668 mmHg 65%
    08:00 +19°C° 0 mm 2 mps 669 mmHg 54%
    09:00 +24°C° 0 mm 3 mps 670 mmHg 43%
    10:00 +27°C° 0 mm 3 mps 671 mmHg 33%
    11:00 +28°C° 0 mm 4 mps 671 mmHg 29%
    12:00 +29°C° 0 mm 4 mps 670 mmHg 26%
    13:00 +32°C° 0 mm 4 mps 670 mmHg 22%
    14:00 +30°C° 0 mm 4 mps 670 mmHg 22%
    15:00 +30°C° 0 mm 4 mps 669 mmHg 22%
    16:00 +30°C° 0 mm 4 mps 669 mmHg 22%
    17:00 +28°C° 0 mm 3 mps 669 mmHg 27%
    18:00 +25°C° 0 mm 3 mps 669 mmHg 31%
    19:00 +23°C° 0 mm 2 mps 668 mmHg 35%
    20:00 +21°C° 0 mm 2 mps 669 mmHg 37%
    21:00 +20°C° 0 mm 2 mps 669 mmHg 38%
    22:00 +20°C° 0 mm 2 mps 669 mmHg 40%
    23:00 +19°C° 0 mm 2 mps 669 mmHg 42%

    Day after tomorrow, 27 May, Sunday

    Time Temperature Precipitation Wind Pressure Humidity
    00:00 +18°C° 0 mm 2 mps 669 mmHg 44%
    01:00 +18°C° 0 mm 2 mps 669 mmHg 45%
    02:00 +17°C° 0 mm 2 mps 669 mmHg 48%
    03:00 +16°C° 0 mm 2 mps 669 mmHg 51%
    04:00 +16°C° 0 mm 3 mps 668 mmHg 54%
    05:00 +16°C° 0 mm 3 mps 669 mmHg 56%
    06:00 +15°C° 0 mm 2 mps 669 mmHg 57%
    07:00 +15°C° 0 mm 2 mps 669 mmHg 59%
    08:00 +19°C° 0 mm 3 mps 670 mmHg 49%
    09:00 +23°C° 0 mm 4 mps 671 mmHg 39%
    10:00 +27°C° 0 mm 5 mps 672 mmHg 29%
    11:00 +28°C° 0 mm 5 mps 672 mmHg 26%
    12:00 +30°C° 0 mm 5 mps 671 mmHg 23%
    13:00 +32°C° 0 mm 5 mps 671 mmHg 20%
    14:00 +30°C° 0 mm 4 mps 670 mmHg 20%
    15:00 +30°C° 0 mm 4 mps 670 mmHg 20%
    16:00 +30°C° 0 mm 4 mps 670 mmHg 20%
    17:00 +27°C° 0 mm 3 mps 669 mmHg 24%
    18:00 +25°C° 0 mm 2 mps 669 mmHg 28%
    19:00 +21°C° 0 mm 2 mps 669 mmHg 32%
    20:00 +21°C° 0 mm 2 mps 669 mmHg 34%
    21:00 +20°C° 0 mm 2 mps 670 mmHg 36%
    22:00 +19°C° 0 mm 2 mps 670 mmHg 38%
    23:00 +19°C° 0 mm 2 mps 670 mmHg 39%

    28 May, Monday

    Time Temperature Precipitation Wind Pressure Humidity
    00:00 +18°C° 0 mm 2 mps 670 mmHg 41%
    01:00 +18°C° 0 mm 2 mps 670 mmHg 43%
    02:00 +17°C° 0 mm 2 mps 669 mmHg 45%
    03:00 +16°C° 0 mm 2 mps 669 mmHg 47%
    04:00 +16°C° 0 mm 2 mps 669 mmHg 49%
    05:00 +16°C° 0 mm 2 mps 670 mmHg 50%
    06:00 +16°C° 0 mm 2 mps 670 mmHg 52%
    07:00 +16°C° 0 mm 2 mps 671 mmHg 54%
    08:00 +19°C° 0 mm 2 mps 671 mmHg 46%
    09:00 +24°C° 0 mm 3 mps 672 mmHg 38%
    10:00 +27°C° 0 mm 3 mps 673 mmHg 31%
    11:00 +28°C° 0 mm 3 mps 673 mmHg 27%
    12:00 +30°C° 0 mm 3 mps 672 mmHg 24%
    13:00 +31°C° 0 mm 3 mps 671 mmHg 20%
    14:00 +31°C° 0 mm 2 mps 671 mmHg 20%
    15:00 +31°C° 0 mm 2 mps 670 mmHg 20%
    16:00 +31°C° 0 mm 2 mps 670 mmHg 20%
    17:00 +28°C° 0 mm 1 mps 670 mmHg 24%
    18:00 +26°C° 0 mm 1 mps 669 mmHg 28%
    19:00 +23°C° 0 mm 1 mps 669 mmHg 31%
    20:00 +22°C° 0 mm 1 mps 669 mmHg 33%
    21:00 +22°C° 0 mm 1 mps 670 mmHg 35%
    22:00 +21°C° 0 mm 1 mps 670 mmHg 36%
    23:00 +20°C° 0 mm 1 mps 669 mmHg 38%

    29 May, Tuesday

    Time Temperature Precipitation Wind Pressure Humidity
    00:00 +20°C° 0 mm 1 mps 669 mmHg 39%
    01:00 +19°C° 0 mm 1 mps 669 mmHg 41%
    02:00 +19°C° 0 mm 1 mps 669 mmHg 42%
    03:00 +18°C° 0 mm 1 mps 669 mmHg 44%
    04:00 +18°C° 0 mm 1 mps 668 mmHg 46%
    05:00 +16°C° 0 mm 1 mps 669 mmHg 48%
    06:00 +16°C° 0 mm 2 mps 669 mmHg 50%
    07:00 +16°C° 0 mm 2 mps 670 mmHg 51%
    08:00 +19°C° 0 mm 2 mps 670 mmHg 45%
    09:00 +24°C° 0 mm 3 mps 671 mmHg 39%
    10:00 +27°C° 0 mm 3 mps 672 mmHg 33%
    11:00 +29°C° 0 mm 2 mps 671 mmHg 29%
    12:00 +30°C° 0 mm 2 mps 671 mmHg 25%
    13:00 +32°C° 0 mm 1 mps 670 mmHg 20%
    14:00 +32°C° 0 mm 1 mps 670 mmHg 20%
    15:00 +31°C° 0 mm 1 mps 669 mmHg 20%
    16:00 +31°C° 0 mm 1 mps 669 mmHg 20%
    17:00 +29°C° 0 mm 1 mps 669 mmHg 23%
    18:00 +26°C° 0 mm 1 mps 668 mmHg 27%
    19:00 +24°C° 0 mm 1 mps 668 mmHg 31%
    20:00 +23°C° 0 mm 2 mps 668 mmHg 33%
    21:00 +21°C° 0 mm 2 mps 668 mmHg 35%
    22:00 +20°C° 0 mm 2 mps 668 mmHg 37%
    23:00 +20°C° 0 mm 2 mps 668 mmHg 39%

    30 May, Wednesday

    Time Temperature Precipitation Wind Pressure Humidity
    00:00 +20°C° 0 mm 1 mps 668 mmHg 40%
    01:00 +20°C° 0 mm 1 mps 667 mmHg 42%
    02:00 +19°C° 0 mm 1 mps 667 mmHg 43%
    03:00 +19°C° 0 mm 1 mps 667 mmHg 44%
    04:00 +18°C° 0 mm 1 mps 667 mmHg 45%
    05:00 +18°C° 0 mm 1 mps 667 mmHg 46%
    06:00 +18°C° 0 mm 1 mps 668 mmHg 47%
    07:00 +18°C° 0 mm 1 mps 668 mmHg 49%
    08:00 +21°C° 0 mm 1 mps 669 mmHg 42%
    09:00 +24°C° 0 mm 1 mps 670 mmHg 35%
    10:00 +27°C° 0 mm 1 mps 671 mmHg 27%
    11:00 +29°C° 0 mm 1 mps 670 mmHg 25%
    12:00 +31°C° 0 mm 1 mps 670 mmHg 22%
    13:00 +32°C° 0 mm 1 mps 669 mmHg 19%
    14:00 +32°C° 0 mm 1 mps 669 mmHg 19%
    15:00 +32°C° 0 mm 1 mps 669 mmHg 19%
    16:00 +32°C° 0 mm 1 mps 668 mmHg 18%
    17:00 +29°C° 0 mm 1 mps 668 mmHg 22%
    18:00 +27°C° 0 mm 1 mps 668 mmHg 25%
    19:00 +24°C° 0 mm 1 mps 668 mmHg 29%
    20:00 +23°C° 0 mm 1 mps 668 mmHg 30%
    21:00 +23°C° 0 mm 1 mps 668 mmHg 31%
    22:00 +22°C° 0 mm 1 mps 668 mmHg 33%
    23:00 +21°C° 0 mm 1 mps 668 mmHg 34%
    Show more